Wind_Speed
32 32 32 33 33 33 34 34 35 35 36 37 37 38 39 40 41 42 43 45 45 46 47 48 49 50 51 52 52 53 54 55 56 56 59 61 63 65 67 69 70 72 73
31 31 31 32 32 33 33 34 35 35 36 37 37 38 39 40 42 43 44 45 46 47 48 49 50 51 52 53 54 55 57 59 61 61 62 64 66 68 69 70 72 72 72
30 31 31 31 32 32 33 33 34 35 36 37 37 38 39 41 42 43 45 46 47 48 49 51 52 53 54 55 57 58 60 62 64 65 66 67 69 70 71 72 72 72 72
30 30 30 31 31 32 32 33 33 34 35 36 37 38 40 41 43 44 46 47 48 49 51 52 53 55 56 58 59 61 63 65 66 68 69 69 70 71 72 72 71 71 71
29 29 30 30 31 31 31 32 33 34 35 36 38 39 40 42 44 45 46 48 49 50 52 53 55 57 58 60 63 64 66 67 68 70 70 70 70 72 72 72 71 70 70
29 29 30 30 30 31 31 32 33 35 36 37 39 40 41 43 45 46 48 49 50 51 53 55 57 59 61 63 65 67 68 70 71 71 71 72 72 72 71 71 70 69 67
29 29 29 30 30 31 32 33 34 36 37 38 39 40 42 44 45 47 48 49 51 53 54 56 59 61 63 65 67 68 69 71 71 72 72 72 72 71 71 69 68 66 64
29 29 29 29 30 31 33 34 35 36 37 39 40 41 42 44 46 47 49 51 52 54 56 58 60 63 65 67 68 69 70 70 71 72 72 72 71 71 69 66 64 61 58
28 29 29 30 31 32 33 34 36 37 38 39 40 42 43 45 47 49 50 52 53 55 57 60 62 64 67 69 70 70 69 69 71 71 71 70 69 67 65 62 59 56 52
29 29 30 31 32 33 34 35 36 37 38 39 40 42 44 46 48 50 51 52 54 57 59 62 64 66 68 69 70 70 70 70 69 69 67 66 65 63 61 59 55 50 46
29 30 30 31 32 33 34 35 36 37 38 40 41 43 45 47 49 51 53 55 57 59 61 63 66 68 69 70 71 71 70 69 67 66 64 63 61 59 57 53 48 44 41
29 30 31 31 32 33 35 35 36 38 39 41 42 44 47 49 50 52 55 57 59 61 63 66 67 68 70 71 71 70 68 67 65 63 62 60 57 54 50 45 42 40 38
29 30 31 32 33 34 35 36 37 39 40 42 44 46 48 50 52 54 57 59 61 63 65 67 68 69 70 69 68 66 65 64 62 61 58 55 52 48 43 40 38 36 34
30 31 31 33 34 35 36 37 38 40 42 43 46 48 50 52 54 56 58 61 63 65 66 67 68 68 67 66 64 63 62 61 59 57 54 50 46 42 38 36 34 32 30
31 32 32 33 34 35 37 38 40 41 43 45 47 50 51 53 56 58 60 62 64 66 66 67 67 66 65 63 61 60 59 57 54 51 48 44 40 37 34 31 30 28 26
31 32 33 34 35 36 38 40 41 43 44 47 49 52 53 56 58 60 62 63 65 66 67 67 66 64 62 59 57 56 54 51 48 46 43 39 35 32 29 27 25 24 22
32 32 34 35 36 38 39 40 42 44 46 49 51 53 55 58 59 61 62 63 65 66 66 65 63 60 58 55 54 52 49 46 44 41 38 34 30 27 25 23 21 20 19
32 33 34 36 37 38 40 41 43 45 47 50 53 55 57 59 60 61 62 64 65 65 64 62 59 56 54 52 50 47 44 42 39 36 33 29 26 23 21 19 18 17 16
33 34 35 37 38 39 40 42 44 47 49 52 54 57 59 60 61 62 63 64 64 63 61 58 55 53 51 48 45 42 40 38 35 32 28 25 22 20 18 17 16 15 15
34 35 36 37 38 40 42 44 46 48 51 53 56 58 60 61 61 62 63 63 63 61 58 55 52 50 47 44 41 38 36 34 31 28 25 22 19 17 17 16 15 14 13
34 35 36 38 39 41 43 45 48 50 52 55 58 59 60 60 61 62 62 62 61 58 54 52 49 45 42 39 37 34 32 30 27 24 21 19 17 17 16 15 14 13 12
35 36 37 39 40 42 44 47 49 51 54 57 58 59 60 60 61 61 61 60 58 55 51 47 44 41 38 36 34 32 29 27 24 22 20 18 17 16 15 14 13 12 11
36 37 38 40 42 44 46 48 51 53 56 58 58 59 59 60 60 60 60 58 55 51 47 43 40 37 35 33 31 29 27 25 22 20 19 17 16 15 14 13 13 12 11
36 38 39 41 43 45 47 49 52 54 57 58 58 59 59 59 60 59 58 55 51 47 43 40 37 34 32 31 29 27 24 22 20 19 18 17 16 15 14 13 12 12 11
37 39 40 42 44 47 48 51 53 55 57 58 58 58 59 59 59 58 55 51 47 44 40 37 34 32 30 29 27 24 22 20 19 18 17 16 15 14 13 13 12 11 10
38 40 42 44 46 47 49 52 54 56 57 57 58 58 59 58 57 54 50 47 44 40 37 34 31 29 27 26 24 22 20 19 18 17 16 15 14 14 13 12 11 11 10
Wind_Direction
274 276 277 278 279 280 281 282 283 284 285 286 288 289 290 291 293 295 296 298 299 300 300 301 302 302 302 302 302 302 302 301 300 300 300 299 299 299 299 299 298 298 297
274 275 277 278 280 281 281 282 283 285 286 287 288 289 290 292 294 295 297 298 299 300 300 301 301 302 302 302 302 302 302 302 301 301 300 300 300 299 299 299 299 298 298
274 276 277 279 281 282 282 283 284 285 286 287 288 289 291 293 295 296 297 298 299 300 300 301 301 302 302 303 303 303 303 302 302 301 301 300 300 300 300 300 299 299 299
275 277 278 280 281 282 283 284 285 286 287 288 289 291 292 294 295 297 298 299 299 300 301 302 302 302 303 303 303 303 303 302 302 302 301 301 300 300 301 300 299 300 300
276 277 279 280 282 283 284 285 287 288 288 289 291 292 294 295 297 298 298 299 300 301 302 302 303 303 304 304 304 304 303 303 302 302 302 302 302 302 302 301 300 300 300
276 277 279 280 282 284 285 287 288 289 290 291 293 294 295 296 297 298 299 300 301 302 303 303 304 304 304 305 305 305 304 304 303 302 302 303 303 303 302 301 301 300 300
276 278 280 282 284 285 286 287 288 290 291 292 294 295 296 298 299 300 301 302 303 303 304 305 305 305 305 306 305 305 305 304 304 303 304 304 304 303 302 302 302 302 302
277 279 281 283 284 285 287 289 290 291 293 294 295 297 298 300 300 301 302 303 303 304 305 306 306 306 307 306 306 305 305 305 304 304 304 304 304 304 304 303 303 303 302
278 280 282 283 285 286 288 290 291 293 294 295 297 298 300 301 302 303 304 304 305 305 306 307 307 307 307 307 306 306 306 305 304 305 305 305 305 305 304 304 304 303 303
278 280 282 284 286 288 290 292 293 294 296 297 299 300 301 302 303 304 304 305 305 307 307 308 308 308 308 307 307 307 306 306 305 305 305 305 305 305 304 304 304 304 304
279 281 283 285 287 289 291 293 295 296 298 299 301 302 303 304 304 305 305 306 307 308 309 309 309 309 309 308 307 307 307 306 306 306 306 306 306 305 304 303 303 304 304
279 282 284 286 289 291 293 295 296 298 299 301 303 304 305 306 306 306 307 308 309 310 310 310 310 309 309 309 308 307 307 307 307 307 307 307 306 305 304 303 302 304 304
281 283 285 288 290 292 294 296 298 300 301 303 304 306 306 307 307 308 309 310 310 311 311 311 311 310 310 310 309 308 308 308 308 308 308 308 307 305 303 302 302 303 302
282 285 287 290 292 294 296 298 300 302 303 305 306 307 308 308 309 310 310 311 311 312 312 312 312 311 311 311 310 310 310 310 309 309 309 308 307 305 302 301 301 302 302
284 286 289 291 293 296 298 300 302 303 305 306 308 309 310 310 310 311 312 312 313 313 313 313 312 312 312 311 311 311 311 311 311 310 310 309 307 305 303 301 301 301 301
285 288 290 293 295 297 299 301 303 305 307 308 310 311 311 312 312 313 313 314 314 314 314 313 313 313 313 312 312 312 312 312 312 312 311 310 308 306 304 302 302 301 301
286 289 291 294 296 299 301 303 305 307 309 310 312 313 313 314 314 314 315 315 315 315 315 314 314 314 314 313 313 314 314 314 314 314 312 310 308 307 305 304 303 301 301
287 290 292 296 299 301 303 305 307 309 311 312 314 314 315 315 315 315 316 316 316 316 316 315 315 315 314 314 314 314 315 315 315 315 313 311 309 307 305 304 304 302 302
288 291 294 297 300 302 304 307 309 310 312 314 315 315 316 316 316 316 317 317 317 317 317 316 316 315 315 315 315 315 315 316 316 315 314 311 309 307 306 305 304 303 302
290 293 296 299 301 304 306 308 310 312 314 315 316 317 317 317 317 317 318 318 318 317 317 316 316 316 315 315 315 315 316 316 316 315 314 312 309 306 305 305 304 303 302
291 294 297 300 303 305 308 310 312 314 315 316 317 317 317 318 318 318 318 319 319 318 317 316 316 316 316 316 315 315 316 316 316 315 313 311 308 307 305 304 303 302 301
293 296 299 302 304 307 309 311 313 314 316 317 318 318 318 319 319 319 319 319 319 318 317 317 316 316 317 316 316 316 316 316 315 313 311 309 308 306 305 304 302 301 299
294 297 300 303 305 308 310 312 314 315 317 318 319 319 319 320 320 320 320 320 319 318 317 317 316 316 316 317 317 317 316 315 313 311 309 307 305 304 302 302 300 298 297
296 298 301 304 306 309 311 313 315 316 318 319 319 320 320 320 320 321 320 319 319 318 318 317 316 316 315 316 317 316 315 314 312 309 307 304 303 302 300 299 299 297 294
297 300 302 305 307 310 312 314 315 317 319 319 319 320 320 320 321 321 320 319 319 319 318 317 317 316 316 317 316 315 314 313 311 308 305 302 301 301 299 297 296 295 292
298 301 304 306 308 311 312 314 316 318 319 319 319 320 320 320 320 320 320 320 319 319 318 318 317 317 317 318 316 314 312 311 309 306 303 301 300 299 297 294 293 292 290
Height
5730 5729 5727 5726 5724 5723 5721 5719 5717 5714 5712 5709 5707 5704 5701 5697 5694 5690 5686 5681 5677 5672 5667 5662 5657 5651 5645 5640 5634 5628 5622 5616 5612 5608 5600 5592 5584 5577 5569 5562 5554 5546 5539
5721 5720 5719 5718 5716 5715 5713 5711 5708 5706 5703 5701 5698 5695 5692 5688 5684 5680 5676 5671 5667 5662 5656 5651 5645 5640 5634 5628 5621 5615 5609 5602 5596 5591 5585 5576 5568 5559 5551 5543 5535 5526 5519
5713 5712 5711 5710 5708 5706 5704 5702 5700 5697 5695 5692 5689 5686 5683 5679 5675 5670 5666 5661 5656 5651 5646 5640 5634 5628 5622 5615 5608 5601 5594 5587 5579 5573 5567 5559 5550 5541 5533 5524 5516 5507 5499
5705 5704 5703 5701 5700 5698 5696 5694 5691 5689 5686 5683 5680 5677 5673 5669 5665 5660 5656 5651 5646 5640 5634 5628 5622 5615 5608 5601 5594 5587 5579 5571 5563 5555 5548 5540 5531 5522 5513 5505 5498 5489 5480
5697 5696 5694 5693 5691 5690 5687 5685 5683 5680 5677 5674 5671 5667 5663 5659 5655 5650 5645 5640 5634 5629 5622 5616 5609 5601 5594 5587 5579 5571 5562 5554 5545 5537 5529 5521 5513 5503 5494 5485 5478 5471 5463
5689 5688 5686 5685 5683 5681 5679 5677 5674 5671 5668 5665 5661 5658 5654 5649 5644 5639 5634 5629 5623 5617 5610 5603 5596 5588 5580 5572 5563 5554 5545 5535 5527 5518 5510 5502 5493 5483 5474 5465 5457 5451 5445
5681 5680 5678 5677 5675 5673 5670 5668 5665 5662 5659 5656 5652 5648 5644 5639 5634 5629 5623 5617 5611 5604 5597 5590 5582 5573 5565 5556 5547 5538 5528 5517 5507 5498 5491 5482 5473 5464 5455 5448 5439 5431 5424
5673 5671 5670 5668 5666 5664 5662 5659 5656 5653 5650 5646 5642 5638 5633 5628 5623 5617 5611 5605 5599 5592 5584 5576 5568 5559 5549 5540 5532 5523 5512 5502 5491 5481 5472 5463 5453 5444 5435 5428 5420 5414 5407
5664 5663 5662 5660 5658 5655 5653 5650 5647 5644 5640 5636 5632 5627 5623 5617 5612 5606 5599 5593 5586 5579 5571 5562 5553 5544 5534 5524 5515 5506 5497 5486 5475 5464 5454 5444 5435 5426 5417 5410 5404 5397 5392
5656 5655 5653 5651 5649 5647 5644 5641 5638 5634 5630 5626 5622 5617 5612 5606 5600 5594 5587 5581 5574 5567 5558 5548 5538 5528 5518 5507 5496 5487 5479 5469 5459 5449 5438 5428 5419 5410 5402 5395 5388 5383 5377
5648 5646 5645 5643 5640 5638 5635 5632 5628 5625 5621 5617 5612 5607 5601 5595 5588 5582 5574 5567 5560 5552 5543 5533 5523 5512 5501 5490 5479 5469 5460 5450 5442 5432 5423 5414 5405 5396 5388 5381 5375 5370 5366
5639 5638 5636 5634 5632 5629 5626 5623 5619 5615 5611 5606 5601 5595 5589 5583 5576 5569 5562 5554 5545 5537 5528 5518 5507 5496 5485 5474 5463 5452 5442 5433 5424 5416 5407 5398 5390 5382 5375 5369 5364 5360 5355
5631 5629 5627 5625 5623 5620 5617 5613 5609 5605 5601 5596 5591 5585 5578 5571 5564 5556 5548 5540 5531 5522 5512 5502 5491 5480 5469 5458 5447 5436 5426 5417 5408 5400 5392 5384 5376 5369 5364 5359 5355 5351 5347
5622 5621 5618 5616 5613 5610 5607 5604 5600 5595 5591 5585 5580 5574 5567 5559 5551 5543 5535 5526 5516 5506 5496 5486 5475 5464 5453 5442 5432 5421 5412 5402 5394 5386 5378 5370 5364 5358 5353 5349 5346 5342 5339
5614 5612 5610 5607 5604 5601 5598 5594 5590 5585 5580 5574 5568 5562 5555 5547 5539 5530 5521 5512 5502 5492 5481 5471 5460 5449 5438 5428 5417 5408 5398 5389 5380 5372 5365 5359 5353 5348 5344 5341 5338 5335 5332
5605 5603 5601 5598 5595 5592 5588 5584 5579 5574 5569 5562 5556 5549 5541 5533 5524 5516 5506 5496 5485 5475 5465 5454 5444 5433 5423 5413 5404 5395 5386 5377 5369 5361 5355 5349 5344 5340 5336 5333 5331 5328 5326
5596 5594 5591 5589 5586 5582 5578 5574 5569 5563 5557 5551 5543 5536 5528 5519 5510 5501 5491 5481 5471 5460 5449 5438 5428 5418 5409 5400 5391 5382 5374 5366 5359 5352 5345 5340 5336 5332 5329 5327 5325 5323 5321
5587 5585 5582 5579 5576 5572 5568 5563 5558 5552 5546 5539 5531 5523 5514 5505 5496 5486 5476 5467 5456 5445 5434 5423 5413 5404 5395 5387 5379 5371 5364 5357 5350 5343 5338 5333 5330 5327 5324 5322 5320 5319 5317
5578 5575 5573 5569 5566 5562 5557 5552 5547 5541 5535 5527 5519 5510 5501 5492 5482 5472 5462 5452 5441 5431 5420 5410 5400 5392 5384 5376 5368 5361 5355 5348 5342 5337 5332 5328 5325 5322 5320 5318 5316 5315 5314
5568 5566 5563 5559 5556 5551 5547 5541 5536 5529 5523 5515 5506 5497 5488 5478 5468 5458 5448 5437 5427 5417 5407 5397 5389 5380 5373 5366 5359 5352 5346 5341 5336 5331 5327 5324 5321 5319 5317 5315 5313 5312 5310
5559 5556 5553 5549 5545 5541 5536 5530 5524 5518 5510 5502 5494 5484 5475 5465 5455 5445 5435 5424 5414 5404 5394 5386 5377 5370 5363 5356 5350 5345 5339 5334 5330 5326 5323 5320 5317 5315 5313 5311 5310 5309 5308
5549 5546 5543 5539 5535 5530 5525 5519 5513 5506 5498 5490 5480 5471 5461 5451 5441 5431 5421 5411 5401 5391 5383 5375 5367 5361 5355 5349 5343 5338 5333 5329 5325 5321 5318 5316 5314 5312 5310 5309 5307 5306 5305
5539 5536 5533 5529 5524 5519 5514 5508 5501 5494 5486 5477 5468 5458 5449 5439 5429 5419 5409 5399 5389 5380 5372 5365 5359 5353 5347 5342 5336 5332 5327 5323 5320 5317 5314 5312 5310 5308 5307 5306 5304 5303 5302
5529 5526 5522 5518 5513 5508 5502 5496 5489 5481 5473 5464 5455 5446 5436 5427 5417 5407 5397 5387 5378 5370 5363 5356 5350 5345 5340 5335 5330 5326 5322 5318 5315 5312 5310 5308 5307 5305 5304 5302 5301 5300 5299
5519 5515 5511 5507 5502 5497 5491 5484 5477 5469 5461 5452 5443 5434 5424 5415 5405 5395 5386 5377 5369 5362 5355 5348 5343 5338 5333 5328 5324 5320 5317 5313 5311 5308 5306 5304 5303 5302 5300 5299 5298 5297 5297
5508 5505 5500 5496 5491 5485 5479 5472 5465 5457 5448 5439 5431 5422 5412 5403 5393 5384 5375 5368 5360 5353 5347 5341 5336 5331 5327 5323 5319 5315 5312 5309 5307 5304 5302 5301 5300 5298 5297 5296 5295 5294 5294